www.pogodaiklimat.ru

ПОГОДА в Рашен-Мишене, AK

  • Прогноз погоды в Рашен-Мишене
  • Монитор погоды в Рашен-Мишене
  • Климат в Рашен-Мишене

АРХИВ ПОГОДЫ в Рашен-Мишене

Время (UTC), дата Ветер
(напр.,м/с)
 
Видим.   Явления Облачность Т
(С)
Тd
(С)
f
(%)
Тe
(С)
Тes
(С)
Комфортность

P
(гПа)

Po
(гПа)
Тmin
(С)
Tmax
(С)
R
(мм)
SD
(см)
13:56 25.03   16 км  слабый дождь  10/10 990 м  +2.2  +0.6  89  +1  +1    1010.7  1008.5      0.3   
14:20 25.03   11 км  дождь  10/10 870 м  +2.0  +1.0  93  +1  +1      1008.1         
14:56 25.03 ЮВ  16 км  дождь  10/10 870 м  +2.2  +0.6  89  -2  -2    1010.2  1007.8         
15:08 25.03 ЮВ  13 км  дождь  10/10 960 м  +2.0  +1.0  93  -2  -2      1007.8         
15:56 25.03 нст  11 км  дождь  10/10 960 м  +1.7  +1.1  96  -2  -2    1010.1  1007.8         
16:34 25.03   16 км    10/10 240 м  +2.0  +1.0  93  +1  +1      1007.8         
16:56 25.03   16 км  слабый дождь  10/10 240 м  +2.2  +1.1  92  +1  +1    1010.1  1007.8  +1.1  +2.2     
17:25 25.03 нст  16 км  слабый дождь  10/8 240 м
[средняя] 
+2.0  +1.0  93  -2  -2      1007.8         
17:54 25.03 В  16 км  слабый дождь  10/10 240 м  +3.0  +1.0  87  +1  +1      1007.5         
17:56 25.03 нст  16 км  слабый дождь  10/10 240 м  +2.8  +1.1  89  -1  -1    1009.9  1007.5         
18:56 25.03 нст  16 км  слабый дождь  10/10 1440 м  +2.8  +1.1  89  -2  -2    1009.9  1007.5         
19:56 25.03 нст  16 км  слабый дождь  10/10 1170 м  +3.3  +1.1  85  -0  -0    1009.6  1007.1         
20:56 25.03 ЮВ  16 км    10/10 1470 м  +3.9  +1.1  82  +1  +1    1009.4  1007.1         
21:56 25.03 ЮВ  16 км    10/10 1230 м  +3.9  +1.1  82  +2  +2    1009.7  1007.1         
22:56 25.03 Ю  16 км    10/10 1290 м  +4.4  +1.1  79  +2  +2    1009.5  1007.1  +2.2  +4.4     
23:56 25.03 Ю  16 км    10/10 900 м  +5.6  +1.7  76  +4  +4    1009.6  1007.1         
00:32 26.03 Ю  16 км    10/10 840 м  +6.0  +2.0  75  +2  +2      1007.1         
00:54 26.03 Ю  16 км    10/10 900 м  +6.0  +2.0  75  +3  +3      1007.5         
00:56 26.03 нст  16 км    10/10 840 м  +6.1  +1.7  73  +3  +3    1009.8  1007.5         
01:56 26.03 Ю  4
{9} 
16 км  слабый дождь  10/10 630 м  +5.6  +2.8  82  +1  +1    1010.1  1007.5         
02:56 26.03 Ю  4
{8} 
16 км  слабый дождь  10/10 510 м  +4.4  +2.8  89  -1  -1    1010.8  1008.5         
03:56 26.03 Ю  8
{10} 
16 км  слабый дождь  10/10 450 м  +4.4  +2.2  86  -2  -2    1011.1  1008.5         
04:56 26.03 Ю  16 км  слабый дождь  10/10 390 м  +3.3  +2.2  92  -2  -2    1011.5  1009.1  +3.3  +6.1     
05:56 26.03 Ю  7
{9} 
13 км  слабый дождь  10/10 330 м  +2.8  +1.7  92  -4  -4    1012.1  1009.8         
06:26 26.03 Ю  10 км  неопределенные осадки, дымка  10/10 270 м  +2.0  +1.0  93  -4  -4      1010.2         
06:56 26.03 Ю  16 км  неопределенные осадки  10/10 270 м  +1.7  +1.1  96  -2  -2    1012.9  1010.5         
07:05 26.03 Ю  16 км  слабый дождь  10/10 270 м  +2.0  +1.0  93  -3  -3      1010.8         
07:36 26.03 Ю  16 км    10/10 270 м  +2.0  +1.0  93  -3  -3      1011.2         
07:56 26.03 ЮЗ  16 км    10/10 540 м  +1.7  +0.6  92  -3  -3    1013.7  1011.2         
08:56 26.03 ЮЗ  16 км    10/10 390 м  +2.2  +0.6  89  -3  -3    1014.4  1011.8         
09:11 26.03 ЮЗ  16 км    10/10 390 м  +2.0  +1.0  93  -4  -4      1011.8         
09:56 26.03 ЮЗ  16 км    10/10 330 м  +2.2  +0.6  89  -4  -4    1015.1  1012.5         
10:26 26.03 ЮЗ  16 км    10/10 270 м  +2.0  +1.0  93  -4  -4      1012.9         
10:56 26.03 ЮЗ  16 км    10/10 270 м  +1.7  +0.6  92  -4  -4    1015.6  1013.2  +1.7  +3.3     
11:56 26.03 ЮЗ  16 км    8/8 210 м  +1.7  0.0  88  -4  -4    1016.2  1013.9         
12:17 26.03 ЮЗ  16 км    5/5 210 м  +1.0  0.0  93  -5  -5      1013.5         
12:56 26.03 Ю  16 км    ясно  +1.1  0.0  92  -5  -5    1016.5  1013.9         
13:56 26.03 Ю  16 км    ясно  +0.6  -0.6  92  -5  -5    1016.9  1014.5         
14:56 26.03 ЮЗ  16 км    ясно  0.0  -1.1  92  -6  -6    1017.2  1014.9         
15:56 26.03 ЮЗ  14 км    ясно  0.0  -1.1  92  -5  -5    1017.8  1015.2         
16:56 26.03 Ю  14 км    ясно  +1.1  0.0  92  -4  -3    1018.3  1015.9  0.0  +1.7     
17:25 26.03 Ю  13 км    8/8 300 м  +2.0  0.0  87  -3  -3      1016.2         
17:52 26.03 ЮЗ  14 км    5/5 300 м  +2.0  +1.0  93  -4  -3      1016.6         
17:56 26.03 ЮЗ  14 км    5/5 300 м  +2.2  -0.6  82  -4  -4    1019.0  1016.6         
18:56 26.03 ЮЗ  4
{8} 
16 км    ясно  +3.3  -0.6  76  -2  -1    1019.5  1016.9         
19:35 26.03 Ю  16 км    8/8 540 м  +3.0  -1.0  75  -2  -2      1017.3         
19:56 26.03 ЮЗ  4
{8} 
16 км    8/8 540 м  +3.3  -0.6  76  -2  -1    1019.9  1017.6         
20:04 26.03 ЮЗ  16 км    5/5 540 м  +3.0  -1.0  75  -2  -1      1017.6         

 

Местоположение метеостанции Russian Mission Airport: широта 61.7750 долгота -161.3194 высота над уровнем моря 16 м.

В архиве по умолчанию представлена погода в Рашен-Мишене за последние 1-2 суток. Обновление информации о фактической погоде в базе происходит ежечасно! Архивные данные за месяц целиком и за предыдущие месяцы Вы можете получить, выбрав интересующий диапазон дат из раскрывающегося списка и нажав кнопку "Ввод!".

Внимание! Архив погоды МЕТАР в базе сайта хранится не более 60 дней. Нет смысла пытаться выбрать более раннюю дату.

Внимание! Время в таблицах - всемирное. Для получения местного времени необходимо прибавить поправку, которая в Рашен-Мишене равна -9 ч.

Ветер - указаны скорость ветра в м/с и направление, откуда дует ветер: С - северный, СВ - северо-восточный, В - восточный, ЮВ - юго-восточный, Ю - южный, ЮЗ - юго-западный, З - западный, СЗ - северо-западный.
Видимость - горизонтальная дальность видимости в метрах или километрах. При видимости от 1 до 10 км при отсутствии осадков обычно наблюдается дымка, при ухудшении видимости до 1 км и менее - туман. В сухую погоду видимость может ухудшаться дымом, пылью или мглою.
Атмосферные явления - указаны явления, наблюдавшиеся в указанный момент времени.
Облачность - указаны через наклонную черту верхняя и нижняя облачность в баллах и высота нижней границы облаков в метрах. Внимание: облачность, как и прочие метеорологические величины в США измеряются автоматическими метеостанциями. Указанные значения в баллах носят условный характер и показывают процент времени, в течение которого, в среднем, лазерный луч высотомера отражался от облаков обратно.
T - Температура воздуха - температура, измеренная на высоте 2 м над землей.
Td - Температура точки росы - температура, при понижении до которой содержащийся в воздухе водяной пар достигнет насыщения.
f - Относительная влажность воздуха - влажноcть воздуха, измеренная на высоте 2 м над землей.
Te - Эффективная температура - температура, которую ощущает одетый по сезону человек в тени. Характеристика душности погоды. При расчете учитывается влияние влажности воздуха и скорости ветра на теплоощущения человека.
Tes - Эффективная температура на солнце - температура, которую ощущает человек, с поправкой на солнечный нагрев. Характеристика знойности погоды. Зависит от высоты солнца над горизонтом, облачности и скорости ветра. Ночью, в пасмурную погоду, а также при ветре 12 м/с и более поправка равна нулю.
P - Атмосферное давление - приведенное к уровню моря атмосферное давление.
Po - Атмосферное давление - измеренное на уровне метеостанции атмосферное давление.
Tmin - Минимальная температура - минимум температуры воздуха на высоте 2 м над землей.
Tmax - Максимальная температура - максимум температуры воздуха на высоте 2 м над землей.
R - Количество осадков - Количество выпавших осадков за 3 или 6 часов, мм.
SD - Снежный покров - Высота снежного покрова, см.